sat.trackr.live / text

‹ back to catalog

STARLINK-5840

NORAD 57231 · 2023-094P

PAYLOAD ACTIVE UNKNOWN

§ Identity

Operator
Country
US
Launch date
2023-07-07
Launch site
AFWTR
Launch vehicle
Mass (kg)
RCS (m²)

Purposes: comms

External: N2YO · Heavens-Above · Gunter

§ Orbital elements

Epoch: 2026-05-25T04:37:15.901824Z

Period
94.27 min
Inclination
43.0036°
Eccentricity
0.0001151
Mean motion
15.27578576 rev/d
Perigee alt
482.3 km
Apogee alt
483.8 km
Semi-major
6,861.2 km
B*
-2.5506e-5
RAAN
318.8358°
Arg perigee
274.4474°
Mean anomaly
85.6246°
Rev number
15,881

§ Raw data

STARLINK-58401 57231U 23094P   26145.19254516 -.00000964  00000+0 -25506-4 0  99992 57231  43.0036 318.8358 0001151 274.4474  85.6246 15.27578576158819

JSON: /api/v1/satellites/57231 · /tle

For live sub-satellite position, see the globe view (requires WebGL).

§ Visibility from observer

Set your observer location to see the next 7 days of passes ≥ 10°. The values pass through the URL so the page stays shareable.

No JS? Fill the form by hand. The geolocation button needs JavaScript.